Ottawa International, Ontario

5:25 PM EDT on April 27, 2017 (GMT -0400)
Ottawa International Airport

Weather History for CYOW - March, 2014

Change the Weather History Date:

Monday, March 3, 2014

  Actual Average Record
Temperature  
Mean Temperature -2 °F -  
Max Temperature 6 °F 37 °F 50 °F (2008)
Min Temperature -9 °F 20 °F -20 °F (2003)
Degree Days  
Heating Degree Days 66    
Moisture  
Dew Point -14 °F    
Average Humidity 49    
Maximum Humidity 71    
Minimum Humidity 28    
Precipitation  
Precipitation 0.00 in 0.09 in - ()
Sea Level Pressure  
Sea Level Pressure 30.28 in    
Wind  
Wind Speed 10 mph ()    
Max Wind Speed 15 mph    
Max Gust Speed 20 mph    
Visibility 15.0 miles    
Events      
Averages and records for this station are not official NWS values.
T = Trace of Precipitation, MM = Missing Value Source: Averaged Metar Reports

Daily Weather History Graph

Daily Weather History Graph

Search for Another Location

Airport or City:

Trip Planner

Search our weather history database for the weather conditions in past years. The results will help you decide how hot, cold, wet, or windy it might be!

Date:

Astronomy

Mar. 03, 2014 Rise Set
Actual Time 6:37 AM EST 5:52 PM EST
Civil Twilight 6:07 AM EST 6:22 PM EST
Nautical Twilight 5:33 AM EST 6:56 PM EST
Astronomical Twilight 4:59 AM EST 7:30 PM EST
Moon 7:35 AM EST (3/3) 9:03 PM EST (3/3)
Length of Visible Light 12h 14m
Length of Day
11h 15m
Waxing Crescent, 8% of the Moon is Illuminated
Mar 3
Waxing Crescent
Mar 8
First Quarter
Mar 16
Full
Mar 23
Last Quarter
Mar 30
New

Hourly Weather History & Observations

Time (EST) Temp. Windchill Dew Point Humidity Pressure Visibility Wind Dir Wind Speed Gust Speed Precip Events Conditions
12:00 AM -4.0 °F -19.0 °F -11.2 °F 71% 30.13 in 15.0 mi WSW 8.1 mph - N/A   Clear
1:00 AM -1 °F - -11 °F 47% 30.14 in 15 mi WNW 12.7 mph - -  
1:00 AM -0.4 °F -19.2 °F -11.2 °F 60% 30.14 in 15.0 mi WNW 13.8 mph - N/A   Clear
2:00 AM -2.2 °F -18.0 °F -13.0 °F 60% 30.16 in 15.0 mi WNW 9.2 mph - N/A   Clear
3:00 AM -2.2 °F -19.9 °F -13.0 °F 60% 30.17 in 15.0 mi WNW 11.5 mph - N/A   Clear
4:00 AM -2.2 °F -20.7 °F -13.0 °F 60% 30.19 in 15.0 mi WNW 12.7 mph - N/A   Clear
5:00 AM -2.2 °F -21.5 °F -13.0 °F 60% 30.21 in 15.0 mi WNW 13.8 mph - N/A   Clear
6:00 AM -4.0 °F -23.7 °F -13.0 °F 65% 30.24 in 15.0 mi WNW 13.8 mph - N/A   Partly Cloudy
7:00 AM -6 °F - -14 °F 52% 30.27 in 15 mi WNW 10.4 mph - -   Scattered Clouds
7:00 AM -5.8 °F -23.4 °F -14.8 °F 65% 30.27 in 15.0 mi WNW 10.4 mph - N/A   Partly Cloudy
8:00 AM -4.0 °F -23.0 °F -14.8 °F 60% 30.31 in 15.0 mi NW 12.7 mph - N/A   Partly Cloudy
9:00 AM -0.4 °F -19.9 °F -14.8 °F 51% 30.33 in 15.0 mi NW 15.0 mph - N/A   Partly Cloudy
10:00 AM -0.4 °F -17.6 °F -14.8 °F 51% 30.33 in 15.0 mi NW 11.5 mph 19.6 mph N/A   Clear
11:00 AM 1.4 °F -15.3 °F -16.6 °F 43% 30.34 in 15.0 mi NW 11.5 mph - N/A   Clear
12:00 PM 3.2 °F -11.3 °F -16.6 °F 39% 30.36 in 15.0 mi WNW 9.2 mph - N/A   Partly Cloudy
1:00 PM 3 °F - -14 °F 29% 30.35 in 15 mi West 13.8 mph - -   Scattered Clouds
1:00 PM 3.2 °F -13.1 °F -13.0 °F 47% 30.34 in 15.0 mi West 11.5 mph 19.6 mph N/A   Partly Cloudy
2:00 PM 3.2 °F -14.6 °F -14.8 °F 43% 30.35 in 15.0 mi WSW 13.8 mph - N/A   Partly Cloudy
3:00 PM 5.0 °F -12.3 °F -14.8 °F 40% 30.35 in 15.0 mi WSW 13.8 mph - N/A   Partly Cloudy
4:00 PM 6.8 °F -6.9 °F -14.8 °F 37% 30.34 in 15.0 mi WSW 9.2 mph - N/A   Partly Cloudy
5:00 PM 6.8 °F -4.8 °F -14.8 °F 37% 30.34 in 15.0 mi West 6.9 mph - N/A   Partly Cloudy
6:00 PM 5.0 °F - -16.6 °F 36% 30.33 in 15.0 mi South 2.3 mph - N/A   Clear
7:00 PM -1 °F - -18 °F 28% 30.33 in 15 mi SSE 3.5 mph - -  
7:00 PM -0.4 °F -8.3 °F -18.4 °F 43% 30.33 in 15.0 mi SSE 3.5 mph - N/A   Clear
8:00 PM 1.4 °F -12.5 °F -14.8 °F 47% 30.32 in 15.0 mi SSW 8.1 mph - N/A   Clear
9:00 PM 3.2 °F -11.3 °F -13.0 °F 47% 30.31 in 15.0 mi SSW 9.2 mph - N/A   Clear
10:00 PM 3.2 °F -13.9 °F -11.2 °F 51% 30.31 in 15.0 mi SW 12.7 mph - N/A   Clear
11:00 PM 3.2 °F -10.3 °F -11.2 °F 51% 30.31 in 15.0 mi SW 8.1 mph - N/A   Clear